Weather observations for the past three days for
Rogue Valley International Airport
Metric (Imperial)
Date Time (pdt) Wind (kph) Vis. (km) Weather Sky Cond. Temperature (ºC) Relative Humidity Wind Chill (°C) Heat Index (°C) Pressure Precipitation (cm)
Air Dwpt 6 hour altimeter (cm) sea level (mb) 1 hr 3 hr 6 hr
Max. Min.
07 11:53 N 6 16.09 Fair CLR 21.7 8.9 44% 76.33 1016.9
07 10:53 Vrbl 7 16.09 Fair CLR 20 8.9 20 8.3 49% 76.38 1017.6
07 09:53 Calm 16.09 Fair CLR 17.2 8.3 56% 76.4 1018.0
07 08:53 Calm 16.09 Fair CLR 14.4 8.3 67% 76.43 1018.5
07 07:53 NW 6 16.09 Fair CLR 12.2 8.3 77% 76.45 1018.8
07 06:53 Calm 16.09 Fair CLR 10.6 7.2 80% 76.43 1018.5
07 05:53 S 6 16.09 Fair CLR 10 6.7 80% 76.4 1018.0
07 04:53 Calm 16.09 Fair CLR 10 6.7 17.8 9.4 80% 76.4 1018.0
07 03:53 NE 6 16.09 Fair CLR 10 6.7 80% 76.43 1018.1
07 02:53 N 6 16.09 Fair CLR 11.7 7.8 77% 76.43 1018.0
07 01:53 Calm 16.09 Fair CLR 12.8 7.8 72% 76.43 1018.3
07 00:53 SE 6 16.09 Fair CLR 15 7.2 60% 76.43 1018.2
06 23:53 Calm 16.09 Fair CLR 16.1 7.2 56% 76.43 1018.1
06 22:53 E 7 16.09 Fair CLR 16.1 7.2 28.9 16.1 56% 76.4 1018.1
06 21:53 E 6 16.09 Fair CLR 18.9 7.8 49% 76.4 1018.1
06 20:53 NE 11 16.09 Fair CLR 19.4 8.3 49% 76.38 1017.6
06 19:53 N 9 16.09 Fair CLR 22.8 7.8 38% 76.33 1016.8
06 18:53 N 22 16.09 Fair CLR 25.6 8.9 35% 26 76.28 1016.2
06 17:53 NW 20 16.09 Fair CLR 28.9 8.3 27% 28 76.23 1015.5
06 16:53 W 24 G 37 16.09 Fair CLR 28.9 5 28.9 19.4 22% 27 76.23 1015.3
06 15:53 NW 17 16.09 Fair CLR 28.3 6.7 25% 27 76.23 1015.6
06 14:53 NE 9 16.09 Fair CLR 27.8 6.7 26% 27 76.3 1016.3
06 13:53 Calm 16.09 Fair CLR 25.6 8.3 33% 26 76.35 1017.1
06 12:53 Calm 16.09 Fair CLR 23.3 10.6 45% 76.4 1018.0
06 11:53 Vrbl 6 16.09 Fair CLR 22.2 9.4 44% 76.45 1018.7
06 10:53 NW 11 16.09 Fair CLR 20 10 20 8.3 53% 76.48 1019.1
06 09:53 Calm 16.09 Fair CLR 17.2 8.3 56% 76.5 1019.3
06 08:53 Calm 16.09 Fair CLR 14.4 7.8 65% 76.53 1019.8
06 07:53 Calm 16.09 Fair CLR 12.2 7.8 75% 76.5 1019.5
06 06:53 S 6 16.09 Fair CLR 11.1 7.8 80% 76.45 1018.6
06 03:53 N 6 16.09 Fair CLR 10.6 6.7 77% 76.35 1017.2
06 02:53 Calm 16.09 Fair CLR 12.2 6.7 69% 76.3 1016.8
06 01:53 Calm 16.09 Fair CLR 13.9 7.2 64% 76.3 1016.5
06 00:53 Calm 16.09 Fair CLR 15 7.2 60% 76.28 1016.1
05 23:53 Calm 16.09 Fair CLR 15 6.1 56% 76.2 1015.4
05 22:53 NE 6 16.09 Fair CLR 16.7 6.1 26.7 15 50% 76.17 1014.9
05 21:53 NE 9 16.09 Fair CLR 18.3 7.2 49% 76.12 1014.3
05 20:53 N 9 16.09 Fair CLR 18.9 7.2 47% 76.05 1013.3
05 19:53 N 9 16.09 Fair CLR 22.2 7.8 40% 75.97 1012.2
05 18:53 N 17 16.09 Fair CLR 25 7.2 32% 25 75.92 1011.5
05 17:53 Vrbl 6 16.09 Fair CLR 26.1 9.4 35% 26 75.9 1011.2
05 16:53 Calm 16.09 Fair CLR 25.6 9.4 26.1 17.2 36% 26 75.9 1011.1
05 15:53 N 7 16.09 Fair CLR 25.6 10.6 39% 26 75.95 1011.6
05 14:53 Calm 16.09 Fair CLR 23.9 8.9 39% 25 76 1012.3
05 13:53 Vrbl 6 16.09 Fair CLR 22.2 8.3 41% 76.02 1013.1
05 12:53 Vrbl 6 16.09 Fair CLR 20 8.9 49% 76.07 1013.7
05 11:53 NE 7 16.09 Fair CLR 17.8 8.9 56% 76.12 1014.3
05 10:53 Vrbl 7 16.09 Partly Cloudy SCT028 16.7 8.9 16.7 11.7 60% 76.12 1014.6
05 09:53 Vrbl 6 16.09 Overcast OVC034 15.6 8.9 65% 76.15 1014.9
05 08:53 Calm 16.09 Overcast OVC029 13.9 9.4 74% 76.17 1015.0
05 07:53 Calm 16.09 Overcast OVC029 12.2 9.4 83% 76.15 1014.7
05 06:53 N 11 16.09 Overcast OVC027 11.7 8.9 83% 76.12 1014.2
05 05:53 N 7 16.09 Overcast OVC024 12.2 9.4 83% 76.07 1013.6
05 04:53 Calm 16.09 Overcast OVC026 12.8 9.4 15 11.1 80% 76.05 1013.0
05 03:53 Calm 16.09 Mostly Cloudy BKN025 11.7 8.9 83% 76.02 1012.7
05 02:53 N 7 16.09 Fair CLR 11.7 8.9 83% 76.02 1012.7
05 01:53 N 9 16.09 Fair CLR 11.7 9.4 86% 76 1012.7
05 00:53 NW 11 16.09 Fair CLR 12.8 9.4 80% 76 1012.5
04 23:53 NW 17 16.09 Fair CLR 14.4 10 75% 75.97 1012.1
04 22:53 N 17 16.09 Fair CLR 15 10 27.2 15 72% 75.92 1011.5
04 21:53 NW 17 16.09 Fair CLR 16.7 10.6 67% 75.87 1010.8
04 20:53 NW 13 16.09 Fair CLR 18.3 11.1 63% 75.77 1009.7
04 19:53 NW 15 16.09 Fair CLR 21.1 9.4 47% 75.69 1008.3
04 18:53 NW 26 G 37 16.09 Fair CLR 24.4 7.8 35% 25 75.64 1007.6
04 17:53 NW 24 G 41 16.09 Fair CLR 26.1 7.8 31% 26 75.67 1007.7
04 16:53 W 26 16.09 Fair CLR 27.2 11.1 27.2 19.4 37% 27 75.62 1007.1
04 15:53 NW 22 16.09 Fair CLR 26.7 12.2 41% 27 75.64 1007.6
04 14:53 NW 19 16.09 Fair CLR 25.6 12.2 43% 26 75.72 1008.7
04 13:53 Vrbl 7 G 30 16.09 Fair CLR 23.9 12.2 48% 25 75.79 1009.7
04 12:53 Calm 16.09 Fair CLR 22.8 11.7 50% 75.82 1010.2
Date Time (pdt) Wind (kph) Vis. (km) Weather Sky Cond. Air Dwpt Max. Min. Relative Humidity Wind Chill (°C) Heat Index (°C) altimeter (cm) sea level (mb) 1 hr 3 hr 6 hr
6 hour
Temperature (ºC) Pressure Precipitation (cm)